Location: Casaglia
(44.0333°N, 11.5167°E)
Time: 02:21:37
(UTC+00:00)

Cosmos 1844 Rocket - Pass Details

Date: 07 June 2020
Orbit: 826 x 843 km, 71.0° (Epoch: 06 July)

Event Time Altitude Azimuth Distance (km) Brightness Sun altitude
Rises 01:58:46 0° 336° (NNW) 3,388 6.2 -13.1°
Reaches altitude 10° 02:01:14 10° 338° (NNW) 2,448 5.5 -12.9°
Maximum altitude 02:06:50 72° 63° (ENE) 873 3.0 -12.2°
Drops below altitude 10° 02:12:23 10° 148° (SSE) 2,423 4.9 -11.6°
Sets 02:14:48 0° 150° (SSE) 3,351 5.6 -11.3°
